Location: ??????????
(54.4061°N, 22.6114°E)
Time: 21:20:05
(UTC+00:00)

Meteor 1-16 Rocket - Pass Details

Date: 23 October 2019
Orbit: 790 x 908 km, 81.2° (Epoch: 17 November)

Event Time Altitude Azimuth Distance (km) Brightness Sun altitude
Rises 16:28:25 0° 199° (SSW) 3,358 7.6 -11.4°
Reaches altitude 10° 16:30:50 10° 202° (SSW) 2,413 6.9 -11.8°
Maximum altitude 16:36:16 70° 286° (WNW) 859 4.4 -12.5°
Drops below altitude 10° 16:41:37 10° 11° (N) 2,378 6.4 -13.3°
Sets 16:44:00 0° 14° (NNE) 3,306 7.1 -13.7°
